Location: Guferjoch
(46.7462°N, 8.4506°E)
Time: 15:02:15
(UTC+00:00)

Envisat - Visible Passes

Search period start: 08 March 2021 00:00
Search period end: 18 March 2021 00:00
Orbit: 764 x 766 km, 98.1° (Epoch: 07 March)

Date Brightness Start Highest point End Pass type
(mag) Time Alt. Az. Time Alt. Az. Time Alt. Az.
08 Mar 6.2 03:37:39 10° ENE 03:39:19 11° E 03:40:59 10° ESE visible
08 Mar 3.1 05:14:00 10° NNE 05:19:07 85° ESE 05:24:12 10° SSW visible
09 Mar 4.5 04:37:23 10° NNE 04:42:11 40° E 04:46:57 10° SSE visible
10 Mar 5.7 04:01:22 10° NE 04:05:03 20° E 04:08:43 10° SE visible
11 Mar 3.4 05:02:35 10° NNE 05:07:40 69° ESE 05:12:43 10° S visible
12 Mar 4.9 04:26:07 10° NNE 04:30:41 33° E 04:35:14 10° SSE visible
13 Mar 6.0 03:50:26 10° NE 03:53:29 16° E 03:56:33 10° SE visible
14 Mar 3.9 04:51:13 10° NNE 04:56:13 55° E 05:01:11 10° S visible
15 Mar 5.3 04:14:54 10° NE 04:19:09 26° E 04:23:24 10° SSE visible
16 Mar 6.1 03:39:46 10° ENE 03:41:54 12° E 03:44:02 10° ESE visible
17 Mar 4.4 04:39:52 10° NNE 04:44:44 44° E 04:49:34 10° S visible
